Date,TemperatureHighF,TemperatureAvgF,TemperatureLowF,DewpointHighF,DewpointAvgF,DewpointLowF,HumidityHigh,HumidityAvg,HumidityLow,PressureMaxIn,PressureMinIn,WindSpeedMaxMPH,WindSpeedAvgMPH,GustSpeedMaxMPH,PrecipitationSumIn
2013-1-1,34.7,29.4,19.5,34.7,28.4,17.6,100,96,88,30.28,30.05,7,1,10,0.04
2013-1-2,36.4,24.9,15.9,26.3,19.5,13.8,95,81,53,30.31,30.21,5,0,10,0.00
2013-1-3,41.0,30.9,22.5,28.8,23.8,20.3,92,76,52,30.45,30.28,6,1,9,0.00
2013-1-4,46.9,34.9,23.8,26.1,24.0,21.5,93,67,39,30.49,30.33,6,1,10,0.00
2013-1-5,42.2,36.4,29.8,33.3,29.0,23.8,85,74,63,30.33,30.18,12,1,17,0.00
2013-1-6,42.4,34.6,28.5,32.2,25.3,20.6,89,70,46,30.38,30.20,12,3,17,0.00
2013-1-7,48.9,35.5,23.0,29.3,24.7,19.3,89,66,44,30.38,30.15,8,0,14,0.00
2013-1-8,54.9,41.9,29.7,46.0,33.5,24.6,95,73,51,30.22,30.07,4,1,10,0.20
2013-1-9,53.8,48.5,44.0,45.7,41.9,36.7,100,80,56,30.36,30.22,13,1,18,0.06
2013-1-10,51.4,47.0,41.9,51.4,45.8,35.1,100,96,57,30.27,29.81,12,3,18,0.36
2013-1-11,66.7,54.3,45.9,50.4,46.3,43.6,95,77,46,29.87,29.73,15,5,20,0.00
2013-1-12,55.4,43.2,29.6,49.6,38.0,27.8,94,83,53,29.94,29.78,16,4,24,0.35
2013-1-13,29.5,22.3,15.3,27.7,19.2,12.6,94,88,78,30.40,29.91,14,5,20,0.00
2013-1-14,31.5,20.9,13.1,17.4,14.0,10.9,92,76,50,30.54,30.37,6,1,9,0.00
2013-1-15,32.2,22.8,14.9,20.6,15.6,11.9,91,75,49,30.39,30.20,8,1,10,0.00
2013-1-16,42.7,29.4,14.9,22.8,18.4,13.0,94,67,37,30.23,30.11,9,2,12,0.00
2013-1-17,45.3,36.0,30.0,31.9,26.1,20.2,89,68,49,30.50,30.20,9,3,14,0.00
2013-1-18,58.7,40.6,24.4,32.4,25.7,18.4,93,61,22,30.53,30.20,18,3,25,0.00
2013-1-19,63.7,51.6,41.9,37.2,33.2,25.3,63,50,36,30.20,30.04,16,6,23,0.00
2013-1-20,54.2,42.8,29.4,36.5,25.4,15.7,81,52,32,30.27,30.14,11,3,17,0.00
2013-1-21,34.4,26.4,19.8,17.0,14.1,11.4,72,60,44,30.40,30.27,8,3,14,0.00
2013-1-22,33.1,25.8,18.1,18.9,15.4,11.2,82,65,53,30.41,30.28,8,2,12,0.00
2013-1-23,60.2,38.4,19.8,41.4,28.6,17.0,89,69,47,30.32,30.16,9,2,14,0.00
2013-1-24,38.0,30.9,27.2,26.9,16.6,11.9,75,55,47,30.40,30.19,14,5,20,0.00
2013-1-25,48.1,35.7,25.3,32.1,27.3,20.3,95,74,47,30.28,30.15,8,2,13,0.00
2013-1-26,55.7,44.3,30.4,28.9,25.6,21.8,80,50,27,30.31,30.17,11,3,17,0.00
2013-1-27,54.4,47.0,40.9,52.9,42.5,28.8,95,85,53,30.17,29.93,10,5,16,0.01
2013-1-28,74.0,65.3,54.2,61.1,58.8,52.8,100,80,61,29.95,29.79,20,6,29,0.00
2013-1-29,69.8,60.1,49.3,62.1,57.1,47.6,100,90,75,29.80,29.38,21,4,30,3.02
2013-1-30,49.2,33.8,25.7,49.0,29.5,19.8,100,84,75,30.04,29.40,23,8,35,0.01
2013-1-31,42.6,26.6,13.7,27.5,19.0,2.4,91,74,51,30.46,30.01,16,5,25,0.00
2013-2-1,34.5,21.9,7.5,15.2,7.9,1.8,83,57,33,30.53,30.25,8,3,14,0.00
2013-2-2,51.3,38.1,23.8,34.3,26.4,14.5,79,63,51,30.27,30.15,12,4,20,0.00
2013-2-3,52.4,43.5,36.3,31.6,25.9,21.2,74,52,32,30.26,29.99,14,4,20,0.00
2013-2-4,59.9,47.8,37.9,44.0,34.7,24.8,87,61,45,29.99,29.81,14,4,21,0.02
2013-2-5,63.2,47.0,30.7,39.4,33.2,28.9,95,63,30,30.08,29.91,14,2,18,0.00
2013-2-6,55.9,46.5,38.0,38.8,34.5,29.8,82,64,50,30.15,29.99,12,4,18,0.00
2013-2-7,57.9,47.9,42.0,51.8,43.9,38.2,95,86,70,30.05,29.85,12,3,18,0.18
2013-2-8,51.4,39.2,32.2,39.0,31.7,28.5,91,76,47,30.31,30.05,12,4,17,0.00
2013-2-9,37.6,34.6,32.0,35.2,31.3,28.7,95,88,77,30.26,29.93,12,5,18,0.09
2013-2-10,61.4,48.5,36.5,54.2,37.1,27.1,100,71,29,30.00,29.64,18,7,28,0.58
2013-2-11,51.7,41.3,33.4,29.8,26.3,23.4,74,56,34,30.17,30.00,12,3,17,0.00
2013-2-12,44.8,38.1,29.8,34.9,28.7,24.4,95,70,54,30.16,29.91,8,1,13,0.08
2013-2-13,49.3,39.4,32.6,37.3,32.9,30.4,100,80,52,29.99,29.91,10,4,14,0.10
2013-2-14,55.4,45.4,38.1,35.4,31.3,27.1,75,59,42,30.13,29.92,9,4,15,0.00
2013-2-15,43.5,34.9,27.0,30.7,20.3,11.6,84,57,33,30.30,30.13,13,5,20,0.00
2013-2-16,36.8,30.6,22.9,22.9,17.9,12.9,90,61,38,30.34,30.16,10,2,14,0.00
2013-2-17,64.8,45.8,30.5,32.9,26.2,19.8,67,48,26,30.17,29.85,14,3,20,0.00
2013-2-18,56.9,47.5,32.4,52.0,39.5,24.7,91,74,62,30.07,29.55,19,7,28,0.28
2013-2-19,42.4,33.0,26.0,24.8,16.8,10.9,74,53,31,30.32,30.06,16,5,24,0.00
2013-2-20,33.2,29.0,25.0,16.2,12.1,9.9,63,49,40,30.35,30.15,8,3,15,0.00
2013-2-21,31.8,28.7,26.2,31.7,26.1,16.3,100,90,57,30.17,29.76,14,5,21,0.00
2013-2-22,33.4,27.7,22.0,33.1,22.9,18.7,100,82,63,30.13,29.85,12,3,14,0.03
2013-2-23,42.3,29.7,18.5,25.0,20.7,16.0,91,71,46,30.13,29.99,9,1,12,0.19
2013-2-24,52.3,40.0,28.1,34.1,28.5,21.9,79,64,48,30.06,29.91,10,4,17,0.13
2013-2-25,48.7,39.1,34.6,35.8,31.5,27.3,94,75,49,29.92,29.40,16,6,28,0.56
2013-2-26,36.0,32.7,32.0,34.3,31.6,30.1,100,96,90,29.85,29.33,14,4,25,0.09
2013-2-27,35.2,32.8,31.3,30.6,28.5,26.5,91,84,74,30.04,29.80,17,7,25,0.04
2013-2-28,34.1,31.3,29.7,27.9,25.9,24.0,86,80,74,30.19,30.03,12,6,17,0.00
2013-3-1,30.0,28.5,26.6,25.4,24.2,22.4,90,84,76,30.26,30.16,11,5,17,0.00
2013-3-2,33.4,27.1,22.0,24.5,20.6,17.8,90,77,59,30.35,30.24,11,4,16,0.00
2013-3-3,53.8,37.4,21.5,28.6,23.8,18.0,87,62,36,30.25,29.87,8,3,15,0.01
2013-3-4,63.9,48.4,37.6,47.0,38.2,28.5,92,69,50,29.87,29.61,9,4,16,0.00
2013-3-5,45.2,36.5,29.4,41.3,26.8,19.6,94,69,49,30.28,29.77,22,10,33,0.05
2013-3-6,46.0,34.3,25.3,25.4,21.6,17.8,75,61,42,30.42,30.28,12,3,15,0.00
2013-3-7,58.7,44.6,31.1,33.2,28.2,23.5,76,55,31,30.33,30.17,9,3,15,0.00
2013-3-8,56.6,46.1,34.8,39.3,34.2,30.8,86,65,47,30.30,30.09,10,5,17,0.01
2013-3-9,70.8,56.3,43.9,55.7,45.8,37.3,95,70,41,30.09,29.69,17,4,27,0.64
2013-3-10,56.8,47.1,31.2,56.6,45.5,28.8,100,94,78,29.88,29.61,15,4,25,1.03
2013-3-11,43.6,33.6,27.4,29.9,25.6,22.3,93,74,44,30.05,29.84,15,5,22,0.00
2013-3-12,53.2,41.4,28.0,30.8,24.7,21.0,80,53,34,30.31,30.04,15,4,23,0.00
2013-3-13,49.1,37.6,27.4,25.0,22.0,18.6,77,55,32,30.47,30.31,11,2,17,0.00
2013-3-14,72.2,51.7,31.4,41.2,31.4,20.8,72,48,30,30.39,30.08,16,3,24,0.00
2013-3-15,80.5,66.8,54.7,48.4,44.2,40.0,68,47,25,30.08,29.71,19,4,25,0.00
2013-3-16,69.3,61.0,45.3,50.3,44.3,37.3,75,55,44,29.86,29.69,13,4,20,0.00
2013-3-17,45.3,39.9,37.3,39.8,38.1,35.7,100,94,75,29.93,29.71,12,4,20,0.33
2013-3-18,52.4,43.9,39.5,42.5,37.3,29.7,100,80,47,30.04,29.68,16,4,23,0.02
2013-3-19,51.2,41.2,31.0,29.8,24.3,9.3,78,53,25,30.25,30.03,11,2,17,0.00
2013-3-20,43.9,36.7,29.3,31.2,20.1,8.9,90,55,25,30.35,30.14,20,5,29,0.00
2013-3-21,38.9,31.2,26.0,30.0,19.4,11.4,100,64,37,30.14,29.91,11,4,20,0.00
2013-3-22,34.9,32.2,29.2,34.9,32.2,29.2,100,100,100,29.99,29.90,9,3,14,0.15
2013-3-23,39.7,36.6,33.6,39.5,35.8,33.6,100,97,88,29.99,29.73,9,2,12,0.10
2013-3-24,39.7,33.9,28.7,39.7,31.6,21.8,100,91,75,30.08,29.59,22,8,37,0.15
2013-3-25,32.9,27.5,22.6,25.8,21.6,17.6,85,78,67,30.33,30.05,18,8,23,0.00
2013-3-26,42.7,32.4,23.0,26.0,23.5,21.0,93,71,48,30.43,30.33,10,3,15,0.00
2013-3-27,55.6,41.4,27.2,31.5,25.7,21.9,82,57,31,30.38,30.19,10,3,16,0.00
2013-3-28,68.2,55.7,43.2,46.1,38.9,31.4,69,54,40,30.25,30.09,10,2,13,0.00
2013-3-29,67.2,57.1,49.9,53.7,49.3,43.1,100,77,55,30.17,30.08,11,2,18,0.29
2013-3-30,70.5,56.4,49.5,56.4,50.7,47.2,95,82,55,30.11,29.81,10,3,15,0.58
2013-3-31,67.3,56.9,49.1,52.6,45.3,36.1,100,70,34,29.94,29.81,16,3,30,0.09
2013-4-1,56.1,48.4,42.2,41.9,37.2,27.8,82,66,52,30.19,29.93,10,3,15,0.01
2013-4-2,42.2,36.9,34.8,35.2,32.3,27.7,95,84,59,30.29,30.16,8,2,12,0.15
2013-4-3,52.3,43.1,33.5,34.4,25.6,21.5,95,54,31,30.31,30.17,15,3,21,0.00
2013-4-4,54.2,46.5,37.3,36.4,31.3,24.5,93,58,38,30.18,30.05,11,2,15,0.24
2013-4-5,70.7,55.4,39.0,38.9,33.6,28.4,67,46,29,30.18,29.97,10,2,13,0.00
2013-4-6,75.4,62.3,49.7,48.0,42.3,35.8,64,49,34,29.97,29.74,21,5,30,0.00
2013-4-7,78.3,66.6,56.8,57.6,52.8,47.6,81,62,42,29.87,29.70,14,4,24,0.00
2013-4-8,73.9,65.0,57.6,61.5,57.8,54.6,92,78,63,29.77,29.66,16,4,21,0.02
2013-4-9,79.2,68.1,59.9,63.2,59.1,55.2,87,74,54,29.79,29.68,11,3,18,0.00
2013-4-10,72.7,56.2,38.6,64.9,51.9,36.9,100,86,71,29.84,29.60,21,5,25,0.75
2013-4-11,49.4,40.1,33.6,37.1,32.9,30.4,95,77,53,29.83,29.73,14,6,22,0.00
2013-4-12,55.7,44.5,35.6,36.3,32.4,27.5,83,64,43,30.03,29.79,17,4,23,0.00
2013-4-13,69.0,54.8,39.7,45.7,39.4,33.3,79,58,40,30.06,29.81,10,2,17,0.00
2013-4-14,80.8,65.6,51.1,58.2,48.0,39.4,84,58,25,29.82,29.49,17,4,27,0.00
2013-4-15,80.5,67.7,58.3,64.3,60.0,53.8,93,78,55,29.79,29.65,12,3,18,0.00
2013-4-16,73.2,57.4,50.7,61.8,53.3,49.3,100,87,66,29.98,29.79,9,2,13,0.00
2013-4-17,83.8,69.2,51.6,68.8,60.9,49.1,100,77,55,29.97,29.60,16,4,25,0.00
2013-4-18,75.5,52.3,38.3,65.9,48.0,29.6,100,86,68,29.91,29.50,19,6,27,3.26
2013-4-19,54.2,43.0,34.2,30.4,27.2,22.3,74,55,33,30.10,29.91,16,7,26,0.00
2013-4-20,66.7,52.4,35.0,39.2,34.3,29.0,85,53,29,30.23,30.10,9,1,12,0.00
2013-4-21,67.2,57.1,48.0,42.9,40.4,36.5,79,56,36,30.28,30.11,13,3,18,0.00
2013-4-22,71.8,58.9,46.2,45.5,40.5,37.4,74,53,31,30.19,29.87,10,2,18,0.00
2013-4-23,59.2,49.2,36.2,55.1,45.0,34.6,100,87,60,30.07,29.77,15,3,23,0.61
2013-4-24,53.9,42.3,34.7,36.0,31.3,25.5,95,68,37,30.31,30.07,13,4,20,0.00
2013-4-25,70.9,53.8,33.9,38.5,32.0,26.6,80,47,23,30.37,30.21,7,1,10,0.00
2013-4-26,57.8,49.1,46.3,48.3,44.5,37.7,100,86,48,30.34,30.16,10,3,17,1.17
2013-4-27,55.1,50.2,46.7,54.0,49.8,46.7,100,99,92,30.17,29.97,9,2,15,0.35
2013-4-28,75.5,58.7,48.8,54.4,49.1,44.4,100,74,34,30.02,29.85,8,2,12,0.00
2013-4-29,86.7,68.8,50.4,61.5,54.3,49.3,100,65,31,29.90,29.72,13,2,18,0.00
2013-4-30,84.3,71.8,58.5,60.0,53.0,45.8,90,56,28,29.84,29.75,14,2,23,0.00
2013-5-1,83.0,69.4,59.5,63.9,58.5,49.4,91,69,48,30.03,29.84,10,1,23,0.00
2013-5-2,64.5,50.4,35.0,61.2,47.4,33.6,100,90,79,30.19,29.99,12,4,20,0.18
2013-5-3,36.5,33.7,32.6,36.5,33.5,31.4,100,99,95,30.18,29.93,12,4,20,0.75
2013-5-4,44.9,37.4,32.6,42.0,36.2,32.6,100,95,79,30.01,29.86,7,1,10,0.36
2013-5-5,58.0,47.2,34.5,50.5,43.1,33.0,100,87,68,30.08,29.97,11,3,16,0.00
2013-5-6,67.8,56.8,50.2,55.9,51.9,48.6,100,85,62,30.03,29.95,11,4,18,0.00
2013-5-7,77.0,64.7,51.4,56.4,51.9,49.8,100,67,40,30.04,29.94,10,1,12,0.00
2013-5-8,78.5,66.7,52.7,59.9,54.8,50.3,94,68,41,30.02,29.88,9,1,13,0.00
2013-5-9,78.6,65.3,57.9,63.0,58.7,55.9,100,81,54,29.95,29.83,15,2,23,1.91
2013-5-10,69.1,61.3,51.4,61.0,56.9,49.6,100,86,64,30.01,29.84,10,3,14,0.18
2013-5-11,72.7,59.2,48.6,55.9,46.4,32.9,100,68,28,30.16,30.00,12,3,20,0.00
2013-5-12,66.7,54.8,38.8,43.6,35.0,27.0,84,50,26,30.26,30.13,9,1,14,0.00
2013-5-13,81.3,64.1,44.1,54.3,47.2,39.9,91,57,33,30.18,30.00,10,1,15,0.00
2013-5-14,90.5,76.2,62.1,55.5,52.0,47.8,74,46,25,30.00,29.88,15,4,20,0.00
2013-5-15,81.3,70.2,62.7,67.3,60.3,51.7,100,72,55,29.93,29.83,14,3,21,0.14
2013-5-16,65.0,62.2,60.8,63.7,61.7,59.6,100,98,88,29.87,29.81,6,1,9,0.13
2013-5-17,80.8,67.9,61.1,66.5,62.7,61.1,100,85,56,29.91,29.83,6,0,8,0.00
2013-5-18,84.2,72.5,62.8,75.0,68.4,61.6,100,88,70,29.91,29.77,7,1,14,0.00
2013-5-19,87.8,76.7,68.6,73.3,68.8,63.6,100,79,46,29.80,29.61,13,2,24,0.00
2013-5-20,75.5,69.4,62.3,70.8,64.1,58.4,93,83,69,29.78,29.63,23,2,40,0.16
2013-5-21,65.2,62.1,58.9,62.8,59.7,56.7,100,92,85,29.84,29.53,13,2,20,0.23
2013-5-22,74.0,64.7,55.3,59.1,56.8,54.0,100,77,54,29.90,29.73,12,2,20,0.00
2013-5-23,75.8,64.2,53.6,60.9,56.2,52.2,100,77,55,30.14,29.90,8,2,18,0.00
2013-5-24,75.3,62.9,52.6,53.9,50.7,47.0,95,67,39,30.29,30.15,11,2,17,0.00
2013-5-25,81.8,66.4,53.1,65.8,56.6,46.5,92,72,55,30.23,30.04,8,1,12,0.15
2013-5-26,84.7,73.1,61.1,68.9,63.8,58.3,92,74,49,30.09,29.93,15,2,22,0.00
2013-5-27,82.3,73.5,64.5,70.2,65.6,61.6,93,77,62,29.95,29.75,15,3,22,0.00
2013-5-28,83.5,74.4,68.0,69.5,66.1,63.8,91,76,59,29.83,29.72,16,3,20,0.02
2013-5-29,81.5,74.0,65.8,68.1,65.4,63.2,92,75,60,29.86,29.71,11,2,20,0.00
2013-5-30,81.3,69.5,62.4,68.4,64.8,60.8,100,86,62,29.80,29.69,23,4,33,3.90
2013-5-31,84.6,73.4,64.5,73.9,69.1,63.5,100,88,66,29.78,29.62,14,2,24,0.04
2013-6-1,77.2,67.3,59.6,66.9,63.2,56.3,100,87,65,29.93,29.66,12,2,18,0.82
2013-6-2,64.5,59.8,54.8,57.2,55.8,53.3,100,87,73,30.02,29.92,6,0,12,0.00
2013-6-3,77.7,64.0,49.5,59.3,55.4,48.1,100,76,47,30.05,29.89,8,0,12,0.00
2013-6-4,76.0,66.9,57.6,65.6,60.6,55.9,95,81,67,29.98,29.88,6,0,10,0.00
2013-6-5,79.5,67.9,61.4,67.8,63.0,59.4,95,85,64,29.96,29.79,9,1,14,0.00
2013-6-6,72.0,64.3,58.2,65.1,60.7,56.8,100,89,74,29.89,29.83,5,0,10,0.00
2013-6-7,74.4,64.9,55.1,59.4,56.0,52.8,95,75,52,29.94,29.86,7,1,12,0.01
2013-6-8,81.8,68.4,51.9,63.0,56.7,50.3,100,69,40,29.92,29.81,9,1,12,0.00
2013-6-9,80.1,68.9,62.0,67.8,60.6,56.9,100,76,48,29.88,29.78,8,1,13,0.07
2013-6-10,90.5,77.7,64.9,73.6,66.0,56.9,84,68,54,29.86,29.78,9,2,14,0.00
2013-6-11,93.7,81.5,67.3,72.9,67.5,61.1,95,66,35,29.93,29.84,14,3,21,0.00
2013-6-12,90.8,82.1,73.0,73.3,70.3,67.2,87,69,50,29.90,29.79,17,5,25,0.00
2013-6-13,86.3,78.3,71.3,71.5,68.0,61.6,84,71,56,29.95,29.83,7,2,12,0.00
2013-6-14,89.8,76.5,63.5,73.7,67.4,61.8,100,75,55,29.99,29.88,6,1,9,0.00
2013-6-15,83.8,72.5,67.7,72.2,67.7,64.7,100,86,64,30.00,29.87,10,1,18,0.03
2013-6-16,89.9,76.2,67.5,75.3,69.6,63.1,100,82,58,29.96,29.84,8,1,13,0.01
2013-6-17,74.9,69.9,65.0,69.9,66.3,61.5,94,88,81,29.93,29.79,9,1,13,0.03
2013-6-18,87.5,72.7,60.7,70.4,64.0,59.8,100,76,49,29.98,29.89,9,1,17,0.01
2013-6-19,89.3,75.7,61.3,72.4,64.3,58.6,93,70,38,30.00,29.91,8,0,12,0.00
2013-6-20,90.8,78.2,65.4,72.2,67.9,63.4,94,72,49,30.03,29.93,10,1,13,0.00
2013-6-21,91.1,80.4,70.1,76.3,71.7,67.7,92,76,54,30.02,29.93,9,1,15,0.00
2013-6-22,89.3,79.1,71.3,78.2,72.6,68.9,100,81,59,30.01,29.89,11,1,20,0.15
2013-6-23,92.0,80.3,69.0,75.9,70.3,67.2,95,74,47,29.96,29.84,10,2,14,0.00
2013-6-24,91.6,81.0,69.4,72.9,70.0,67.6,95,71,47,30.00,29.87,11,2,20,0.00
2013-6-25,90.3,81.1,70.5,73.9,69.2,66.2,92,69,48,29.91,29.76,16,4,22,0.00
2013-6-26,94.6,83.3,72.4,77.4,72.9,67.9,90,72,54,29.83,29.76,10,3,17,0.00
2013-6-27,97.5,85.7,75.7,80.0,75.9,72.6,91,74,50,29.89,29.76,6,1,10,0.00
2013-6-28,89.0,79.8,70.5,76.2,67.7,61.1,93,68,44,29.85,29.74,15,3,23,0.00
2013-6-29,83.9,75.0,65.3,62.3,58.2,53.5,78,58,37,29.79,29.71,14,4,24,0.00
2013-6-30,78.3,68.8,62.1,62.6,60.4,57.8,91,75,53,29.92,29.75,10,3,15,0.01
2013-7-1,79.4,69.7,61.0,60.9,58.0,53.0,93,69,43,29.98,29.90,10,2,18,0.00
2013-7-2,79.0,68.2,57.2,59.4,53.9,49.1,85,62,38,30.04,29.96,12,2,18,0.00
2013-7-3,84.0,70.1,55.8,62.4,56.8,52.6,91,65,39,30.07,29.96,6,0,9,0.00
2013-7-4,86.3,71.7,58.6,62.8,58.4,54.3,89,65,36,30.03,29.92,6,1,8,0.00
2013-7-5,89.3,74.9,58.0,64.6,59.7,55.3,92,62,36,30.01,29.90,5,0,8,0.00
2013-7-6,91.6,77.8,64.5,68.0,63.4,59.5,92,65,36,29.98,29.87,8,1,12,0.00
2013-7-7,94.7,80.8,66.3,71.1,64.5,59.7,90,61,33,29.99,29.91,8,1,13,0.00
2013-7-8,95.6,82.0,69.2,73.0,67.1,61.7,88,63,37,30.04,29.95,8,1,12,0.00
2013-7-9,95.8,84.4,72.4,72.9,69.4,67.3,85,63,43,30.01,29.88,12,2,15,0.00
2013-7-10,98.5,85.0,76.0,74.2,69.2,62.1,82,61,32,29.95,29.82,8,1,12,0.00
2013-7-11,93.2,81.9,72.4,72.6,66.7,59.4,94,64,36,29.95,29.87,8,2,12,0.00
2013-7-12,93.1,77.6,66.4,62.6,58.1,50.8,78,54,27,30.02,29.92,9,2,13,0.00
2013-7-13,87.2,74.9,60.7,62.0,58.5,53.8,83,58,39,30.02,29.90,6,1,10,0.00
2013-7-14,90.0,75.9,61.4,63.4,59.7,53.6,89,60,32,30.03,29.94,9,1,14,0.00
2013-7-15,90.6,76.0,67.7,70.2,67.1,62.0,100,76,44,30.13,30.02,14,2,21,0.44
2013-7-16,91.4,74.8,69.0,76.8,71.4,69.0,100,91,54,30.23,30.12,9,1,13,0.04
2013-7-17,92.5,80.3,68.4,76.0,71.2,68.3,100,76,48,30.27,30.12,8,0,15,0.02
2013-7-18,97.0,83.7,70.4,74.9,68.3,62.6,88,63,35,30.16,29.94,6,1,10,0.00
2013-7-19,95.4,78.5,69.8,73.2,69.5,66.7,92,75,45,29.97,29.85,7,1,12,0.00
2013-7-20,93.3,76.5,69.5,75.2,70.0,65.3,100,82,49,29.90,29.79,9,1,13,0.30
2013-7-21,81.6,73.9,68.1,72.9,70.4,67.7,100,89,68,29.89,29.78,8,1,13,0.03
2013-7-22,87.8,76.2,65.7,73.1,69.6,63.6,100,82,53,29.88,29.78,10,2,13,0.42
2013-7-23,94.7,81.9,70.6,77.6,71.9,61.3,92,73,52,29.83,29.70,11,3,18,0.00
2013-7-24,86.3,76.6,69.9,71.7,68.4,61.6,100,77,56,29.96,29.79,7,2,12,0.02
2013-7-25,89.3,74.6,61.8,65.8,62.8,58.8,91,69,42,30.05,29.96,10,1,12,0.00
2013-7-26,71.0,67.9,64.6,69.2,66.2,63.8,100,94,80,30.00,29.95,4,0,7,1.72
2013-7-27,78.0,69.5,62.5,66.6,62.7,56.8,100,81,51,30.01,29.93,6,1,10,0.01
2013-7-28,73.6,66.2,60.5,66.6,62.6,58.3,100,89,71,30.03,29.95,6,0,8,0.03
2013-7-29,83.7,73.4,64.5,74.1,68.9,64.5,100,87,69,30.07,29.96,10,1,15,0.13
2013-7-30,85.8,75.6,70.8,77.4,73.2,69.3,100,93,72,30.01,29.92,9,1,15,1.95
2013-7-31,85.5,78.2,71.8,77.0,72.8,68.2,100,84,64,30.00,29.92,7,1,13,0.00
2013-8-1,90.5,75.7,63.9,71.2,67.0,62.9,100,77,49,30.05,29.93,5,1,8,0.00
2013-8-2,88.9,76.4,68.8,76.9,70.8,66.3,95,84,64,29.94,29.82,8,1,13,0.02
2013-8-3,89.5,76.3,67.0,75.6,72.4,67.0,100,89,60,30.04,29.81,14,1,21,3.21
2013-8-4,73.9,71.6,69.6,72.9,71.1,69.0,100,98,92,30.11,29.99,5,1,9,1.59
2013-8-5,86.5,75.8,70.6,79.6,73.5,69.0,100,93,78,30.01,29.79,7,2,12,0.32
2013-8-6,84.3,74.9,69.7,78.8,72.8,68.5,100,93,83,29.90,29.76,10,1,17,0.15
2013-8-7,80.8,75.0,69.8,76.8,73.8,69.0,100,96,84,29.92,29.75,9,1,14,0.63
2013-8-8,86.0,74.8,69.1,75.9,72.3,69.1,100,93,68,29.94,29.80,7,1,12,0.62
2013-8-9,83.3,74.4,69.4,75.1,71.8,69.4,100,92,72,29.99,29.87,4,0,7,1.09
2013-8-10,81.6,73.7,66.9,72.0,69.5,66.5,100,87,69,30.07,29.99,8,1,14,0.00
2013-8-11,84.2,73.5,67.3,76.3,71.4,67.3,100,94,75,30.07,29.97,6,1,9,0.36
2013-8-12,83.7,75.3,70.7,77.2,72.1,68.7,100,91,69,30.00,29.89,9,1,14,0.02
2013-8-13,81.6,72.9,65.8,72.3,67.6,62.5,100,84,59,30.02,29.93,8,1,13,0.01
2013-8-14,77.5,67.2,58.7,62.6,59.7,56.1,100,78,53,30.12,30.02,7,1,12,0.00
2013-8-15,76.2,64.3,52.7,60.8,56.3,51.8,100,77,53,30.11,29.99,6,0,8,0.00
2013-8-16,75.3,64.5,56.4,62.4,58.4,54.9,95,82,60,30.10,30.02,5,0,8,0.00
2013-8-17,79.2,66.9,54.9,65.9,60.3,53.6,100,81,59,30.12,30.02,6,1,10,0.00
2013-8-18,84.5,71.0,59.5,69.1,63.8,59.3,100,80,53,30.11,30.01,5,0,9,0.00
2013-8-19,87.6,72.8,61.4,69.8,65.1,61.3,100,79,45,30.09,29.97,6,0,10,0.00
2013-8-20,87.8,74.8,63.0,70.4,65.8,62.3,100,76,47,30.06,29.97,6,0,9,0.00
2013-8-21,91.5,77.0,63.7,75.8,68.4,62.3,100,77,51,30.08,29.98,8,0,12,0.00
2013-8-22,92.5,78.9,68.0,74.3,70.1,66.8,100,76,47,30.07,29.96,4,0,5,0.00
2013-8-23,92.2,79.3,67.0,74.7,70.7,66.8,100,77,48,30.04,29.95,4,0,8,0.00
2013-8-24,91.0,82.9,74.1,74.7,71.7,68.8,84,70,54,30.11,30.03,6,1,10,0.00
2013-8-25,93.6,79.6,68.1,75.4,70.5,64.9,100,76,44,30.17,30.08,4,0,7,0.00
2013-8-26,93.0,80.1,70.4,75.9,72.3,70.1,100,79,50,30.16,30.03,7,0,9,0.00
2013-8-27,91.0,79.0,67.4,74.1,69.3,64.4,100,74,45,30.07,29.96,8,1,12,0.00
2013-8-28,92.9,80.0,68.0,75.6,70.3,66.2,100,74,51,30.03,29.95,6,0,9,0.00
2013-8-29,96.0,81.9,68.5,79.5,73.3,67.0,100,77,50,30.02,29.91,5,0,8,0.00
2013-8-30,95.4,83.4,72.9,77.3,73.7,71.2,100,75,50,29.94,29.81,7,1,10,0.00
2013-8-31,95.9,83.0,72.0,76.7,72.4,69.3,100,73,46,29.84,29.73,10,1,16,0.00
2013-9-1,82.3,76.5,70.5,74.7,71.0,65.7,100,83,74,29.86,29.73,14,2,22,0.28
2013-9-2,84.3,75.2,67.0,71.3,66.5,61.3,100,76,53,29.94,29.83,7,1,12,0.01
2013-9-3,86.4,72.8,59.1,66.7,62.1,57.6,100,72,45,30.03,29.93,6,0,8,0.00
2013-9-4,89.8,73.4,57.6,66.4,61.1,55.3,94,68,38,30.12,30.01,4,0,5,0.00
2013-9-5,88.3,73.2,58.9,66.5,62.0,57.4,100,71,41,30.16,30.06,5,0,7,0.00
2013-9-6,88.8,73.7,60.8,67.9,63.3,59.3,100,73,41,30.12,29.98,4,0,6,0.00
2013-9-7,94.0,77.9,64.4,71.6,66.6,62.1,100,71,42,30.01,29.89,8,0,9,0.00
2013-9-8,94.8,80.3,68.0,74.5,69.8,64.8,93,72,43,29.92,29.83,7,0,9,0.00
2013-9-9,94.0,81.9,70.6,72.2,68.5,64.9,93,67,41,29.95,29.86,9,1,13,0.00
2013-9-10,94.5,80.4,66.9,70.8,66.3,62.4,100,65,37,30.07,29.93,9,1,13,0.00
2013-9-11,94.0,78.3,66.4,77.1,68.6,63.7,92,74,44,30.09,29.99,9,0,13,0.00
2013-9-12,88.8,77.4,69.0,73.6,69.2,65.1,95,77,55,30.03,29.93,7,1,13,0.00
2013-9-13,76.4,67.9,59.3,65.3,55.1,50.5,85,64,47,30.07,29.97,8,1,14,0.00
2013-9-14,78.3,64.4,51.8,56.2,52.5,48.3,90,67,43,30.09,29.97,8,1,13,0.00
2013-9-15,87.2,70.3,55.1,71.1,58.4,50.4,85,67,47,30.04,29.96,8,1,12,0.00
2013-9-16,71.5,67.9,64.0,67.9,64.6,61.6,100,90,75,30.15,30.01,6,1,9,0.55
2013-9-17,82.8,71.4,63.2,71.2,65.9,61.6,100,84,60,30.13,29.98,6,1,10,0.00
2013-9-18,85.0,74.5,67.2,74.0,69.2,65.3,95,84,66,30.00,29.89,8,0,12,0.02
2013-9-19,89.4,76.5,69.6,73.3,69.2,66.2,91,80,53,29.95,29.82,12,1,18,0.00
2013-9-20,72.3,65.5,56.0,69.5,63.4,53.8,100,93,73,29.92,29.85,10,2,20,1.61
2013-9-21,72.6,61.0,50.5,54.0,49.6,43.1,95,70,37,29.99,29.89,10,2,14,0.01
2013-9-22,77.0,61.1,46.7,56.7,51.1,44.3,94,72,47,29.98,29.86,7,1,9,0.00
2013-9-23,77.1,63.2,50.7,58.6,54.7,49.3,100,76,49,29.93,29.79,6,1,10,0.00
2013-9-24,78.4,66.0,57.0,61.9,58.6,55.3,100,79,52,29.88,29.78,8,1,14,0.02
2013-9-25,80.2,66.0,54.9,64.6,59.5,54.1,100,81,54,29.84,29.78,6,0,10,0.00
2013-9-26,82.7,68.7,56.7,65.8,61.4,55.3,100,80,52,29.94,29.83,8,1,12,0.01
2013-9-27,84.9,71.9,62.4,69.3,64.2,61.5,100,79,48,29.99,29.88,8,1,14,0.00
2013-9-28,79.4,68.5,62.1,68.6,65.1,61.8,100,90,67,29.99,29.87,11,2,17,0.61
2013-9-29,77.0,64.2,55.3,61.9,57.5,53.0,100,82,47,30.02,29.90,9,1,12,0.00
2013-9-30,78.5,66.9,58.6,66.8,63.8,58.6,100,91,64,29.92,29.82,6,1,10,0.00
2013-10-1,86.1,72.9,64.5,72.2,66.7,63.7,100,83,52,29.97,29.86,9,1,13,0.01
2013-10-2,81.6,70.7,65.1,74.7,68.6,64.9,100,94,73,29.99,29.87,4,0,8,0.34
2013-10-3,83.9,72.5,65.0,72.6,68.1,65.0,100,87,61,29.92,29.80,10,2,14,0.00
2013-10-4,85.3,74.0,67.0,72.3,68.0,64.2,100,83,59,29.89,29.81,8,1,13,0.01
2013-10-5,71.1,58.1,47.2,69.2,57.7,47.1,100,99,86,29.97,29.85,10,1,18,1.45
2013-10-6,59.1,52.0,45.3,48.7,44.7,40.9,100,77,59,29.99,29.90,10,3,16,0.04
2013-10-7,70.2,56.3,45.7,52.1,47.2,43.5,93,74,47,30.12,29.99,8,1,14,0.00
2013-10-8,71.7,57.9,46.1,54.2,50.4,46.1,100,78,49,30.16,30.05,8,1,13,0.00
2013-10-9,74.0,59.3,44.6,55.0,50.5,42.9,100,75,46,30.12,30.03,6,0,10,0.00
2013-10-10,76.0,61.9,49.7,59.4,55.4,49.6,100,82,51,30.10,29.92,6,1,9,0.00
2013-10-11,78.8,65.5,55.7,65.6,60.6,55.7,100,85,62,29.96,29.83,11,2,18,0.01
2013-10-12,70.5,62.5,56.8,62.3,58.6,50.0,100,87,72,30.16,29.87,10,1,17,0.42
2013-10-13,71.5,61.4,54.5,54.5,49.2,44.6,83,65,48,30.33,30.15,10,1,14,0.00
2013-10-14,65.0,59.2,53.4,61.6,52.9,44.6,100,80,67,30.25,29.97,6,1,12,0.04
2013-10-15,63.1,59.4,52.1,63.1,57.6,47.8,100,94,83,30.01,29.86,7,2,12,0.25
2013-10-16,59.7,50.9,41.9,47.8,44.3,40.0,94,79,59,30.09,29.97,8,2,13,0.00
2013-10-17,63.3,51.7,43.3,48.3,45.3,42.9,100,81,51,30.04,29.95,7,1,12,0.00
2013-10-18,61.3,49.0,42.3,49.8,44.8,40.9,100,86,63,30.06,29.96,7,1,12,0.14
2013-10-19,57.4,45.3,35.4,43.4,38.9,33.8,100,80,49,30.11,30.01,9,2,14,0.09
2013-10-20,68.4,53.5,39.6,45.0,41.3,37.6,95,67,36,30.02,29.88,15,2,20,0.00
2013-10-21,53.8,49.1,39.3,46.4,43.1,37.7,95,80,63,30.09,29.94,10,1,17,0.00
2013-10-22,64.4,49.4,35.6,47.9,40.9,35.6,100,76,49,30.08,29.90,14,2,21,0.01
2013-10-23,58.4,45.4,34.3,41.2,37.1,32.8,95,74,48,30.18,30.02,6,1,9,0.00
2013-10-24,50.7,43.0,36.3,39.9,33.7,28.1,94,72,42,30.43,30.10,10,2,16,0.00
2013-10-25,55.3,40.7,28.1,33.2,29.5,25.8,93,67,35,30.53,30.23,10,1,14,0.00
2013-10-26,64.6,50.8,36.8,53.9,44.2,32.6,90,79,66,30.23,30.07,11,1,16,0.00
2013-10-27,67.8,51.3,37.0,46.3,39.9,32.2,94,68,33,30.10,29.97,8,1,10,0.00
2013-10-28,67.8,53.1,44.4,55.1,49.7,44.3,100,90,64,30.17,30.02,5,0,9,0.00
2013-10-29,64.7,59.7,52.4,64.2,59.3,51.0,100,99,94,30.16,29.98,6,1,12,0.58
2013-10-30,65.5,63.4,60.6,65.4,63.4,60.6,100,100,100,30.02,29.80,8,1,16,1.17
2013-10-31,74.0,60.0,49.3,66.5,57.5,47.6,100,92,54,29.69,29.38,18,3,30,0.17
2013-11-1,65.2,53.9,46.9,48.1,44.3,40.6,95,73,43,29.95,29.69,10,2,17,0.01
2013-11-2,54.4,46.2,38.4,40.9,38.5,35.4,90,75,54,30.22,29.96,10,3,16,0.00
2013-11-3,59.7,46.1,31.2,43.5,38.1,31.2,100,76,47,30.27,30.05,9,2,20,0.00
2013-11-4,56.9,51.3,47.7,50.3,45.4,40.5,95,80,71,30.18,30.03,9,2,14,0.01
2013-11-5,58.2,54.7,51.6,58.2,54.7,50.2,100,100,95,30.17,29.94,7,2,14,0.66
2013-11-6,59.5,46.1,37.0,59.5,44.1,33.6,100,93,82,30.34,29.86,13,4,20,0.64
2013-11-7,59.1,44.7,32.3,41.9,35.3,31.0,100,73,41,30.44,30.34,11,2,16,0.00
2013-11-8,65.5,48.4,33.6,43.2,37.0,31.4,100,69,30,30.36,30.08,14,2,20,0.00
2013-11-9,65.5,53.5,43.2,44.4,40.5,36.0,86,63,37,30.25,30.09,9,2,13,0.00
2013-11-10,65.2,54.5,45.5,42.8,38.7,35.3,84,57,34,30.37,30.25,7,1,9,0.00
2013-11-11,63.2,52.5,40.1,52.4,44.4,36.6,89,75,58,30.39,30.15,15,2,24,0.00
2013-11-12,40.1,31.4,24.9,36.8,19.9,14.5,90,64,41,30.74,30.39,13,4,21,0.00
2013-11-13,50.4,33.8,18.1,22.2,17.5,12.8,87,55,25,30.72,30.35,11,2,14,0.00
2013-11-14,56.9,42.1,28.2,28.9,23.3,16.9,74,50,21,30.35,30.05,12,2,14,0.00
2013-11-15,57.1,47.6,41.3,48.4,41.7,28.9,94,80,53,30.06,29.88,12,2,16,0.02
2013-11-16,71.5,61.7,50.2,63.4,56.2,48.5,95,83,64,29.88,29.58,18,4,28,0.00
2013-11-17,74.4,66.7,50.8,64.7,45.4,21.8,85,51,24,30.01,29.47,24,8,31,0.00
2013-11-18,59.5,49.3,40.4,38.2,30.5,23.4,79,51,25,30.27,30.01,8,1,12,0.00
2013-11-19,55.2,46.9,39.1,34.0,27.1,23.0,63,47,30,30.29,30.10,10,2,18,0.00
2013-11-20,59.6,48.4,39.1,34.8,30.6,26.3,72,52,31,30.10,29.92,10,2,18,0.00
2013-11-21,53.2,48.9,46.1,49.8,46.6,34.7,100,93,50,30.22,30.00,11,1,15,1.48
2013-11-22,46.2,33.0,30.1,46.1,32.0,28.2,100,96,92,30.55,30.21,15,5,22,0.00
2013-11-23,38.9,30.6,20.1,29.3,20.8,12.2,92,68,45,30.71,30.53,13,4,20,0.00
2013-11-24,28.1,22.1,14.6,15.9,11.3,7.2,83,64,44,30.73,30.42,9,2,13,0.00
2013-11-25,33.9,30.6,27.1,30.9,23.6,13.3,90,76,53,30.42,30.19,6,1,9,0.00
2013-11-26,43.0,34.1,24.4,31.5,26.3,14.9,88,74,56,30.32,30.11,16,5,24,0.00
2013-11-27,34.6,25.1,17.5,16.7,13.0,10.9,76,61,42,30.44,30.32,11,3,21,0.00
2013-11-28,54.2,37.6,22.6,31.0,24.0,16.2,79,60,40,30.46,30.31,10,2,14,0.00
2013-11-29,53.4,40.7,30.4,33.6,29.1,23.9,77,64,45,30.53,30.33,8,1,10,0.00
2013-11-30,59.3,45.3,31.8,44.0,36.8,28.1,89,73,55,30.34,30.11,14,2,18,0.00
2013-12-1,54.7,47.8,42.3,49.4,45.0,39.9,100,90,81,30.14,29.87,3,0,4,0.00
2013-12-2,58.4,49.7,44.4,50.6,47.2,42.6,100,92,74,29.87,29.65,7,0,9,0.00
2013-12-3,61.1,50.3,40.7,55.7,48.6,40.7,100,94,77,29.67,29.55,7,1,13,0.01
2013-12-4,66.3,50.4,32.8,55.3,46.1,30.2,100,87,50,29.91,29.55,14,5,20,0.00
2013-12-5,32.8,23.8,18.8,30.5,20.2,16.9,93,86,74,30.33,29.91,11,5,20,0.00
2013-12-6,19.0,17.4,14.7,17.0,14.2,6.7,93,87,69,30.61,30.27,12,5,18,0.00
2013-12-7,24.5,15.0,4.7,12.4,6.8,0.1,81,70,53,30.71,30.39,8,2,12,0.00
2013-12-8,27.8,22.0,17.1,26.6,19.2,10.3,100,89,69,30.39,30.06,8,2,12,0.00
2013-12-9,27.6,22.8,19.5,26.1,18.4,14.3,94,83,68,30.37,30.19,10,3,14,0.00
2013-12-10,38.9,24.2,11.2,20.0,15.6,8.7,92,72,38,30.46,30.31,9,3,16,0.00
2013-12-11,34.7,25.3,16.8,23.7,18.1,9.9,95,75,55,30.66,30.33,12,2,17,0.00
2013-12-12,44.8,28.6,14.0,21.5,15.3,8.0,88,60,31,30.66,30.31,10,2,17,0.01
2013-12-13,33.5,30.6,25.8,33.5,27.9,18.3,100,90,67,30.32,29.88,6,2,13,0.00
2013-12-14,33.5,30.5,26.1,33.5,29.3,22.9,100,95,87,30.24,29.85,15,5,26,0.00
2013-12-15,49.2,34.6,19.9,34.5,27.7,18.5,95,77,54,30.27,30.10,13,4,20,0.19
2013-12-16,62.8,50.5,42.5,35.4,33.6,32.0,69,54,34,30.11,30.02,10,4,16,0.00
2013-12-17,52.6,43.7,31.2,36.9,32.6,28.5,92,66,46,30.30,30.08,14,3,23,0.00
2013-12-18,63.7,44.9,30.8,38.5,32.8,27.2,89,66,34,30.29,29.95,18,3,24,0.00
2013-12-19,56.8,53.6,47.1,51.9,47.0,38.5,90,79,65,29.95,29.73,9,4,15,0.00
2013-12-20,61.2,45.2,31.8,57.5,43.3,31.4,100,93,81,29.86,29.71,11,3,16,0.07
2013-12-21,36.5,34.0,32.0,36.5,34.0,31.9,100,100,100,29.79,29.51,11,1,17,1.42
2013-12-22,37.8,29.5,24.0,37.8,27.4,21.2,100,92,86,30.36,29.68,13,5,18,0.01
2013-12-23,28.1,21.8,16.0,21.5,17.6,13.5,91,84,65,30.62,30.36,9,4,17,0.00
2013-12-24,33.3,22.2,10.5,23.2,16.7,8.5,93,80,64,30.62,30.34,10,3,14,0.00
2013-12-25,41.6,31.8,23.8,34.1,27.6,21.1,94,85,74,30.40,30.32,9,2,12,0.00
2013-12-26,51.2,37.0,25.0,36.1,28.9,25.0,100,76,41,30.42,30.30,7,2,10,0.00
2013-12-27,57.1,44.4,32.9,34.4,30.8,26.6,81,61,38,30.42,30.29,10,2,12,0.00
2013-12-28,52.6,42.1,31.7,34.3,30.5,26.6,83,64,45,30.30,29.94,8,1,12,0.00
2013-12-29,44.5,30.1,19.1,36.7,23.9,13.4,87,78,66,30.29,29.93,13,5,21,0.00
2013-12-30,36.1,23.8,11.9,20.4,13.9,6.6,84,67,48,30.37,30.26,8,2,12,0.00
2013-12-31,56.9,38.4,25.5,30.0,22.7,17.0,74,55,32,30.41,30.18,14,3,18,0.00
2014-1-1,47.9,36.7,22.4,31.9,27.5,20.1,92,70,49,30.18,29.90,14,3,21,0.00
2014-1-2,22.3,14.7,8.5,19.6,8.9,4.0,91,78,61,30.53,30.10,17,6,22,0.00